DELTA 1 DEB, 7940

Orbit data source: Space-Track

DELTA 1 DEB, 7940 is space debris in SSO originally from a launch on Sun, 23 Jul 1972 UTC launched from the Air Force Western Test Range (AFWTR). Debris objects in space refer to the collection of defunct objects orbiting the Earth. Examples of debris include non-operational satellites, rocket bodies, and fragments generated from explosions, collisions, or faulty payload assembly.

Loading next visibility...
Identifier
7940, 1972-058CF
Orbit
SSO
Country
Flag of USUS
Related business
Manufacturer
Unknown
Mission
Spacecraft
Bus & Motor
Unknown
Mass
Unknown
Launch date (UTC)
1972-07-23 (53 years ago)
Launch vehicle
Unknown
Launch site
Air Force Western Test Range (AFWTR)
Object type
Payload
Rocket body
Debris
Shape & HBR
Unknown shape, 0.2 m
Radar Cross Section
Small (<0.1 m²)

Expand to show TLE details & history
Last TLE update: 13 hours ago

TLE from 13 hours ago
0 DELTA 1 DEB
1 07940U 72058CF  25299.66909511  .00001419  00000-0  53449-3 0  9999
2 07940  98.0098 348.1957 0321614 212.0072 146.1207 14.07983312688139
Epoch: 2025-10-26T16:03Z
TLE epoch observation values (Epoch: 2025-10-26T16:03:29.817Z)
Latitude
-0.00003°
Longitude
72.03949°
Altitude
1,064.91 km
Speed
7.22 km/s
True Right ascension
23h 12m 46s
True Declination
0° 00' 00"
Sunlit
Object was in full shadow at epoch
Visualization orbit readout
Latitude
Unknown
Longitude
Unknown
Altitude
Unknown
Speed
Unknown
Apparent Right ascension
Unknown
Apparent Declination
Unknown
Sunlit
N/A
Visualization observer readout
Local Sidereal Time
00:16:12
Azimuth
Unknown
Elevation
Unknown
Doppler factor
Unknown
Orbital elements
Apogee altitude
1,096.318 km
Perigee altitude
630.521 km
Semi-major axis
7,241.556 km
Eccentricity
0.03216
Inclination
98.0098°
RAAN
348.1957°
Arg. of periapsis
212.0072°
True anomaly
148.10829°
Mean anomaly
146.1207°
Eccentric anomaly
147.12105°
Mean motion
3.52205 °/min
Orbital period
102.21 mins
BSTAR
0.00053449
Loading maneuver chart data...
Computing Atmospheric mass density...
Loading historical data...
Loading historical data...
Loading historical data...
Loading historical data...
Loading historical data...
Loading historical data...
Loading historical data...

Documentation

Showing up to 5 results
|